Theta_e
306 307 309 311 312 315 317 314 314 311 321 322 324 326 324 323 323 323 322 323 323 326 326 326 325 325 323 325 324 323 323 325 326 327 328 326 326 327 328 330 330 331 327 324 321
304 305 306 308 310 313 316 317 314 310 313 319 321 324 323 323 323 323 322 323 319 322 324 325 325 325 323 323 324 320 323 324 321 323 325 325 326 327 329 330 331 331 327 324 322
303 304 305 305 308 311 316 317 315 314 310 311 317 320 322 320 319 322 323 322 321 317 320 323 324 324 323 322 323 320 323 322 321 322 324 324 325 325 327 327 330 330 326 325 324
303 303 304 305 308 311 315 316 316 314 312 309 310 313 316 319 322 319 321 322 321 317 316 320 323 324 323 321 323 322 321 322 322 322 323 323 324 324 327 327 327 329 326 325 324
302 303 305 307 309 311 312 317 317 316 314 310 309 311 314 316 317 319 319 321 318 317 317 319 322 323 323 322 322 322 321 322 322 323 323 322 321 322 326 325 328 328 326 325 325
302 302 303 306 308 310 313 315 317 317 315 312 309 310 314 316 313 315 319 319 319 316 317 319 322 324 323 323 320 321 322 321 322 322 322 322 322 323 324 324 327 327 325 325 324
301 303 302 302 306 308 311 314 315 317 317 314 311 310 316 312 310 311 319 319 317 317 315 319 322 324 323 322 322 322 322 320 321 321 321 322 322 320 323 323 327 328 326 326 325
299 299 302 302 302 306 309 312 314 315 317 316 312 310 311 309 308 311 317 319 317 316 316 316 323 325 325 324 320 321 318 321 320 320 321 321 320 318 321 323 325 328 328 327 327
302 299 300 301 303 305 306 310 313 314 315 316 312 311 310 311 309 313 314 315 316 315 319 316 319 324 325 320 320 317 320 321 321 319 320 320 320 318 320 320 322 324 326 326 327
302 301 300 301 302 304 306 310 311 313 312 316 313 312 312 313 311 313 316 315 316 318 321 323 323 320 317 318 320 321 321 320 320 318 318 319 320 318 320 318 319 320 321 322 322
302 303 301 301 300 304 306 310 311 313 313 313 313 313 313 313 311 315 315 315 316 322 322 324 322 321 321 320 318 318 320 318 318 317 318 316 317 318 317 317 318 319 321 320 320
302 303 303 301 298 304 305 310 310 312 313 313 313 313 313 313 312 313 315 316 318 319 320 322 319 316 317 320 322 319 319 319 317 316 317 316 315 314 314 315 317 318 318 319 320
302 303 303 301 297 301 305 307 310 311 311 313 313 313 313 313 313 313 313 315 317 318 319 318 316 316 318 319 321 320 319 317 318 317 315 313 314 313 313 314 316 317 318 318 319
302 303 303 302 297 300 304 306 308 310 309 310 312 313 313 313 313 314 313 313 316 316 317 318 316 317 318 318 318 320 317 317 319 319 318 312 313 311 310 309 312 314 315 315 316
302 303 304 302 298 298 302 306 308 309 308 308 312 312 313 313 313 314 314 314 315 315 313 312 315 317 318 318 317 317 316 318 318 318 316 316 315 311 310 310 309 310 313 314 314
303 304 304 302 298 298 301 304 305 308 311 312 311 313 312 312 312 314 315 314 314 314 312 311 311 314 315 315 317 315 315 315 313 314 314 313 313 308 308 310 309 310 312 312 313
303 304 304 302 299 301 301 304 306 307 304 312 311 313 312 313 314 313 315 315 313 314 314 314 313 312 312 315 314 315 315 315 315 311 313 309 312 310 309 309 309 310 313 313 314
303 305 304 302 298 300 303 303 305 300 305 306 311 312 313 312 313 313 313 315 313 309 311 313 309 313 311 313 315 315 315 314 315 317 312 310 314 312 310 310 311 310 311 311 312
304 305 304 302 297 299 301 301 295 298 304 310 310 312 311 312 311 312 313 313 314 310 312 311 311 310 311 311 313 316 318 313 312 299 307 309 307 306 306 306 309 311 310 311 313
305 303 301 299 300 300 295 300 296 303 306 307 309 308 308 311 310 312 312 310 312 311 310 311 309 310 311 313 312 315 313 316 310 311 308 309 308 310 308 307 306 307 308 311 312
303 300 300 301 302 300 291 288 298 301 304 308 308 309 308 309 310 312 312 310 310 311 311 311 312 312 311 313 314 314 316 316 315 313 312 309 308 303 307 306 306 306 310 311 311
300 301 301 301 297 295 295 287 298 302 303 305 304 306 308 308 310 309 311 310 308 311 312 310 312 310 311 310 310 312 313 316 318 312 308 309 315 305 304 304 306 308 311 311 312
300 300 301 300 291 292 291 296 297 300 302 303 303 303 302 305 308 307 309 306 310 311 312 312 313 314 312 311 310 312 312 312 312 308 314 313 313 306 307 307 308 308 311 311 311
300 300 299 299 295 291 290 291 294 298 300 302 303 302 301 301 301 302 305 305 304 305 308 311 311 311 310 309 311 313 312 313 313 315 314 313 313 311 308 307 307 309 311 311 312
299 297 298 296 291 291 293 292 291 294 298 299 300 302 302 301 300 300 302 303 305 306 307 310 311 310 310 309 310 312 313 313 314 314 314 313 311 312 311 309 309 311 311 311 311
299 297 297 293 294 293 293 292 296 294 297 297 297 299 301 299 299 299 301 304 303 305 306 303 311 310 312 310 310 312 310 310 312 312 313 312 312 311 311 311 309 310 310 311 310
298 298 298 294 290 292 293 294 295 296 297 298 298 298 299 299 299 299 299 299 300 303 303 304 305 301 297 307 309 312 310 310 310 310 311 313 312 311 310 310 309 309 309 309 309
Wind_Speed
23 20 15 13 16 17 17 15 14 15 22 14 9 13 14 12 15 19 26 14 15 10 9 19 17 17 13 6 6 2 4 3 6 7 4 10 4 8 6 12 6 5 7 11 16
27 24 23 15 15 17 18 16 15 15 16 17 12 11 10 11 13 19 18 19 16 15 8 9 22 15 9 7 4 4 3 6 4 4 5 8 7 13 7 8 3 7 10 16 17
26 23 20 20 18 17 16 18 15 15 18 19 14 14 13 7 8 17 18 22 19 18 14 7 15 9 6 4 6 2 3 1 1 2 7 9 7 5 12 3 10 17 17 20 19
18 19 19 23 20 17 15 17 18 15 14 16 16 13 13 12 7 3 17 24 21 22 18 10 9 4 2 3 3 2 3 2 2 3 5 9 8 4 12 3 8 14 16 19 20
14 18 16 15 18 15 18 16 20 17 15 14 16 14 13 11 8 4 9 14 17 18 14 11 7 4 2 2 3 3 4 4 4 6 8 8 4 3 13 6 8 15 20 19 19
15 15 19 15 14 14 14 16 18 19 17 16 15 16 17 6 8 10 11 11 10 8 9 8 4 5 3 3 3 2 2 3 3 2 3 4 1 1 5 8 9 17 21 21 20
14 14 16 21 14 12 13 13 21 20 20 18 17 18 18 21 8 16 16 8 12 8 5 7 6 4 1 2 2 2 2 3 2 1 1 4 3 7 4 8 9 17 21 21 20
12 13 13 15 23 13 10 12 15 22 18 19 18 18 8 19 12 12 18 12 9 5 10 4 7 2 1 1 4 3 4 3 2 2 1 5 7 12 12 10 13 14 19 21 22
14 13 13 11 15 19 11 9 10 17 13 20 19 12 6 9 18 13 14 13 8 8 5 9 6 1 2 4 3 6 3 3 5 11 3 4 7 9 11 13 19 19 20 23 25
16 13 12 11 14 18 13 8 12 13 17 22 17 9 8 8 14 18 13 12 8 7 7 7 4 1 3 3 5 5 4 5 6 2 3 4 8 9 9 7 16 19 24 28 29
18 15 12 9 12 19 13 11 8 8 20 5 11 3 6 9 13 18 14 12 9 6 4 8 4 8 9 8 1 2 1 4 2 2 1 6 7 14 13 11 20 27 28 25 27
19 17 14 10 10 19 17 7 8 3 3 11 10 5 10 9 6 18 16 8 6 5 6 4 10 7 5 3 3 1 2 3 4 2 1 5 8 11 12 10 23 26 27 31 33
19 18 16 12 9 20 23 17 9 7 3 6 10 10 11 10 3 14 22 8 3 5 8 4 3 7 6 3 4 1 4 3 4 5 1 5 9 7 9 10 21 28 33 35 37
20 19 18 15 11 20 21 17 11 10 4 3 7 8 10 9 1 12 20 8 3 7 5 4 3 4 4 3 6 5 6 5 2 2 5 2 8 4 3 8 5 20 29 36 39
22 20 22 19 6 21 23 21 8 10 3 6 8 9 17 9 10 9 20 6 6 6 5 5 5 4 3 4 6 4 5 6 5 3 3 1 4 4 2 5 10 19 31 34 33
23 21 26 22 8 12 19 15 10 3 6 6 7 9 9 6 4 8 12 3 3 3 4 3 0 4 6 4 10 5 5 5 4 3 4 7 6 5 5 6 5 9 17 18 20
23 24 26 20 12 12 16 13 2 1 2 4 4 9 14 7 6 5 6 6 5 4 4 0 3 1 2 5 2 2 6 1 2 1 6 3 6 13 8 9 6 12 22 21 20
23 27 25 19 13 15 16 3 2 2 4 3 4 10 10 6 6 5 9 9 7 3 3 6 5 8 5 5 5 6 6 4 7 4 4 1 7 6 5 14 21 16 17 19 18
26 29 26 17 13 14 11 3 5 4 3 1 7 5 4 4 5 5 6 5 9 8 6 5 4 3 5 5 8 4 10 5 4 2 2 4 6 8 6 10 17 19 15 16 19
36 31 22 17 17 17 5 3 3 2 4 3 2 1 3 6 4 11 7 4 5 12 2 3 1 1 2 1 1 6 6 3 1 2 4 5 5 6 7 8 6 10 14 13 14
31 9 19 20 16 6 3 5 2 3 4 4 1 3 3 4 5 6 2 2 4 9 15 5 1 2 5 6 8 3 3 3 4 5 4 2 5 7 7 6 7 7 7 10 12
9 4 20 23 5 3 1 3 1 1 3 3 2 4 4 3 3 5 6 2 9 11 10 6 4 4 7 0 2 6 5 9 5 3 2 2 15 4 8 6 5 2 8 8 9
7 10 19 15 3 1 3 3 2 3 1 2 2 2 3 2 1 1 2 5 1 3 6 6 4 6 1 2 3 5 5 5 4 3 15 7 12 6 5 4 9 7 13 11 6
7 3 5 5 3 7 4 1 2 1 3 2 3 3 4 1 1 2 1 3 10 3 11 4 4 5 9 4 5 5 8 16 12 8 19 13 27 16 4 7 6 12 19 22 29
4 2 5 3 1 3 3 2 2 1 2 3 3 0 4 3 3 1 1 2 5 4 4 5 3 3 11 2 2 1 5 14 18 21 8 19 15 22 17 11 22 31 30 26 29
4 6 5 3 15 6 2 6 9 3 5 4 4 5 4 5 5 4 1 2 3 2 3 2 1 3 3 5 8 13 12 10 12 17 18 23 22 26 32 21 13 22 22 28 35
5 9 4 3 2 5 4 6 8 5 6 6 7 4 3 7 11 9 7 8 7 3 2 2 3 3 5 6 7 6 23 18 19 15 8 14 24 23 21 16 16 15 19 26 26
Wind_Direction
263 264 270 266 252 241 240 242 245 253 230 255 219 199 211 205 227 250 270 284 300 307 312 296 314 299 340 4 0 346 66 147 179 160 174 166 137 154 141 143 175 183 157 148 154
252 264 261 268 267 242 238 234 237 232 231 226 230 215 204 205 201 219 267 256 295 292 283 301 306 310 348 357 347 67 90 184 178 187 163 162 152 156 150 148 168 165 162 161 167
245 252 260 264 261 248 236 227 230 230 219 218 214 212 221 217 242 235 211 249 281 285 277 256 278 301 356 344 0 15 117 186 92 163 155 145 141 147 144 224 195 182 172 173 177
240 242 249 244 252 245 239 224 221 225 225 220 217 211 215 217 216 250 227 240 268 271 265 256 260 287 32 321 17 66 83 60 81 90 130 143 145 146 177 188 217 197 187 183 188
252 242 235 230 230 238 230 214 216 221 222 218 213 204 196 201 231 262 205 237 249 254 249 235 236 211 215 291 13 39 5 50 75 84 105 133 108 167 219 252 200 194 194 195 201
249 245 230 237 230 229 226 232 211 207 214 213 206 199 200 219 229 223 199 172 220 244 233 213 233 241 203 199 156 162 18 7 353 63 90 111 132 151 224 225 203 197 202 206 211
249 243 240 232 234 225 223 227 224 205 204 205 201 196 199 223 243 218 211 200 172 220 198 203 218 208 212 159 195 147 115 26 323 288 133 127 319 239 198 213 210 204 209 214 220
239 248 236 236 232 232 221 232 218 210 196 198 198 198 215 224 216 211 208 217 204 197 229 203 197 202 252 318 38 91 49 100 275 168 280 143 253 261 230 214 223 217 215 223 229
230 239 234 236 212 226 228 226 212 206 198 189 183 180 221 228 211 204 208 216 210 208 184 222 194 235 169 113 45 7 154 171 302 209 123 149 240 275 233 220 230 230 232 238 241
228 228 228 227 206 211 213 214 212 190 208 178 179 174 214 207 196 195 192 195 192 167 144 138 154 81 25 121 197 179 181 221 206 193 184 158 248 258 237 211 240 248 248 249 253
226 220 225 222 206 193 199 190 168 214 169 163 175 135 156 159 172 188 185 169 166 163 164 156 155 201 203 198 180 148 103 190 278 283 206 223 234 260 264 254 259 259 261 262 260
222 216 215 209 201 189 200 186 183 157 132 172 176 161 140 148 143 193 183 160 161 176 150 146 224 209 192 184 208 173 164 231 290 297 184 283 255 256 266 241 258 267 269 265 263
217 211 203 197 192 195 205 209 176 184 101 191 188 183 160 173 160 179 188 171 148 168 183 188 173 184 162 167 161 182 198 174 230 328 288 320 271 231 259 243 256 260 265 268 265
208 203 195 184 190 196 208 196 226 186 43 211 177 205 186 160 173 175 182 169 171 182 127 241 199 128 141 187 145 228 184 165 163 52 250 36 290 265 286 276 228 268 265 263 265
202 197 191 191 200 192 203 196 134 184 169 170 156 189 167 178 142 183 179 176 166 179 135 213 175 162 172 184 159 222 155 173 168 196 343 219 295 271 5 292 270 246 259 263 270
196 186 185 187 185 192 193 202 200 164 233 176 142 165 141 158 119 138 179 153 144 104 30 195 290 158 198 153 177 161 99 59 48 97 271 190 187 209 189 207 268 266 283 287 290
188 182 188 186 178 154 182 161 155 197 340 149 144 164 175 166 144 152 173 165 154 155 195 176 236 9 123 99 79 144 124 60 6 334 237 325 195 263 303 277 227 277 294 305 303
176 177 178 186 170 161 159 96 159 261 231 235 129 151 177 138 193 152 160 196 210 97 115 187 301 167 179 172 168 189 163 161 199 206 266 38 234 260 231 284 288 287 301 314 320
166 170 172 166 163 149 145 119 185 241 266 310 99 158 140 150 152 166 182 213 191 179 181 150 262 195 177 170 150 181 218 160 96 30 52 231 286 288 295 277 290 296 310 326 341
159 159 146 149 150 158 75 157 113 304 0 346 107 76 147 167 138 185 169 228 218 180 176 175 358 288 212 90 236 168 158 127 74 245 265 260 259 235 294 291 319 311 334 328 342
151 98 145 144 141 131 136 213 286 47 57 7 84 117 130 124 168 179 196 296 195 182 188 123 239 269 133 198 179 153 203 215 165 170 196 276 254 214 228 245 271 298 344 338 347
97 95 138 147 76 25 74 184 316 64 83 22 67 74 81 64 194 184 209 259 358 168 191 198 179 198 210 234 290 235 229 205 194 247 246 232 262 187 210 226 196 215 330 338 355
73 83 154 158 115 51 347 5 323 357 13 148 112 67 75 104 140 111 315 349 302 47 173 171 209 217 280 349 337 209 208 211 132 98 235 231 261 10 185 239 220 273 290 288 320
101 117 106 156 119 135 128 245 336 314 321 12 94 87 107 39 116 177 217 274 13 5 293 28 216 214 221 198 139 177 202 214 203 215 242 225 260 260 258 256 238 265 270 282 298
98 121 156 181 226 107 96 123 78 1 337 356 17 279 150 139 334 346 36 159 198 237 232 165 233 226 253 300 52 156 213 216 217 235 225 251 243 262 258 248 254 269 277 285 288
102 132 120 73 145 108 179 211 182 207 163 250 163 199 210 180 177 187 55 24 259 336 124 104 34 306 263 253 269 265 258 244 238 242 242 251 263 269 275 271 257 268 278 279 282
123 140 157 86 90 119 212 184 201 160 224 196 203 133 190 249 259 268 270 248 254 321 341 176 141 45 261 5 271 235 235 233 238 238 212 238 248 261 275 273 270 270 265 271 291